Location: Unspecified
(0.0000°N, 0.0000°E)
Time: 07:26:28
(UTC+00:00)

Kosmos-648 - Pass Details

Date: 08 July 2022
Orbit: 1437 x 1489 km, 74.0° (Epoch: 16 August)

Event Time Altitude Azimuth Distance (km) Brightness Sun altitude
Rises 19:11:17 0° 1° (N) 4,601 ? -15.2°
Reaches altitude 10° 19:14:22 10° 7° (N) 3,623 ? -16.0°
Maximum altitude 19:22:43 47° 78° (ENE) 1,897 ? -17.9°
Enters shadow 19:28:02 23° 139° (SE) 2,742 ? -19.1°
